COMSATBW-2

Last updated on Sun Dec 14 2025 00:02:49 GMT+0000 (Coordinated Universal Time)

1 36582U 10021B 25347.20631500 .00000102 00000+0 00000+0 0 9997 2 36582 0.0798 78.3820 0003458 199.9829 251.2452 1.00273266 57094
UTC large
Height (km)
Speed (km/s)
/
Latitude / Longitude
Inclination (degrees)
Orbital Period (minutes)
Azimuth
Elevation
Range (km)
Doppler Factor

Next 0 passes for location: London (51.5072 / 0.1276)

Sorry there are no passes over London.